CEB357 RPLK-RPLL

Flight info

Callsign CEB357
Flight time 0h 47m
Altitude 22000
Route NGA2B NGA W9 AKDAP AKDAP1A
Aircraft A20N/M-SDE2E3FGHIJ1RWXY/LB1

Departure

Time 2026-05-01 14:31
Airport Bicol International Airport (RPLK)

Arrival

Time 2026-05-01 15:19
Airport Ninoy Aquino International Airport (RPLL)
Time Latitude Longitude Altitude Speed Heading
2026-05-01 14:02 13.11199 123.68047 311 ft 0 kts 137°
2026-05-01 14:19 13.11211 123.68035 311 ft 2 kts 137°
2026-05-01 14:19 13.11222 123.68024 311 ft 2 kts 137°
2026-05-01 14:19 13.11235 123.68015 310 ft 2 kts 162°
2026-05-01 14:19 13.11249 123.68013 310 ft 2 kts 181°
2026-05-01 14:20 13.11264 123.68015 310 ft 2 kts 202°
2026-05-01 14:20 13.11281 123.68028 310 ft 1 kts 230°
2026-05-01 14:20 13.11283 123.68030 310 ft 0 kts 229°
2026-05-01 14:25 13.11279 123.68026 310 ft 1 kts 228°
2026-05-01 14:26 13.11272 123.68018 310 ft 2 kts 228°
2026-05-01 14:26 13.11233 123.67950 311 ft 9 kts 269°
2026-05-01 14:26 13.11271 123.67894 310 ft 10 kts 318°
2026-05-01 14:27 13.11314 123.67836 309 ft 10 kts 268°
2026-05-01 14:27 13.11276 123.67777 311 ft 9 kts 228°
2026-05-01 14:27 13.11221 123.67715 313 ft 13 kts 227°
2026-05-01 14:28 13.11067 123.67547 321 ft 17 kts 227°
2026-05-01 14:28 13.10993 123.67464 326 ft 14 kts 227°
2026-05-01 14:28 13.10918 123.67380 329 ft 17 kts 227°
2026-05-01 14:28 13.10816 123.67268 333 ft 24 kts 227°
2026-05-01 14:29 13.10694 123.67133 337 ft 26 kts 227°
2026-05-01 14:29 13.10600 123.67066 338 ft 12 kts 199°
2026-05-01 14:30 13.10489 123.66967 340 ft 5 kts 300°
2026-05-01 14:30 13.10518 123.66946 340 ft 4 kts 14°
2026-05-01 14:30 13.10541 123.66964 340 ft 0 kts 48°
2026-05-01 14:31 13.10549 123.66974 340 ft 11 kts 48°
2026-05-01 14:31 13.10795 123.67248 335 ft 91 kts 47°
2026-05-01 14:31 13.11387 123.67906 340 ft 152 kts 48°
2026-05-01 14:31 13.12093 123.68682 1006 ft 150 kts 47°
2026-05-01 14:32 13.12794 123.69459 1736 ft 150 kts 52°
2026-05-01 14:32 13.13101 123.70091 2195 ft 152 kts 76°
2026-05-01 14:32 13.12805 123.71563 2885 ft 179 kts 120°
2026-05-01 14:32 13.11765 123.72376 3356 ft 207 kts 158°
2026-05-01 14:33 13.10231 123.72308 3823 ft 238 kts 202°
2026-05-01 14:33 13.08969 123.71171 4417 ft 255 kts 242°
2026-05-01 14:33 13.08598 123.69416 5101 ft 262 kts 279°
2026-05-01 14:33 13.09218 123.67675 5890 ft 263 kts 300°
2026-05-01 14:34 13.10046 123.65988 6613 ft 272 kts 296°
2026-05-01 14:34 13.10777 123.64198 7394 ft 276 kts 296°
2026-05-01 14:34 13.11826 123.62566 8137 ft 276 kts 319°
2026-05-01 14:34 13.13374 123.61355 8675 ft 286 kts 330°
2026-05-01 14:35 13.15077 123.60216 9185 ft 299 kts 330°
2026-05-01 14:35 13.16847 123.59018 9892 ft 305 kts 329°
2026-05-01 14:35 13.18605 123.57797 10545 ft 312 kts 329°
2026-05-01 14:35 13.20451 123.56493 10913 ft 329 kts 328°
2026-05-01 14:36 13.22373 123.55109 11220 ft 347 kts 326°
2026-05-01 14:36 13.24321 123.53526 11510 ft 365 kts 322°
2026-05-01 14:36 13.26213 123.51758 11953 ft 376 kts 319°
2026-05-01 14:36 13.28140 123.49882 12616 ft 379 kts 319°
2026-05-01 14:37 13.30045 123.48019 13255 ft 382 kts 319°
2026-05-01 14:37 13.31986 123.46130 13875 ft 385 kts 319°
2026-05-01 14:37 13.33920 123.44255 14458 ft 388 kts 319°
2026-05-01 14:37 13.35242 123.42976 14852 ft 390 kts 319°
2026-05-01 14:38 13.37963 123.40515 15601 ft 393 kts 323°
2026-05-01 14:38 13.40162 123.38824 16131 ft 396 kts 327°
2026-05-01 14:38 13.42492 123.37254 16668 ft 399 kts 329°
2026-05-01 14:38 13.44844 123.35716 17196 ft 402 kts 329°
2026-05-01 14:39 13.47208 123.34174 17699 ft 405 kts 329°
2026-05-01 14:39 13.49596 123.32599 18194 ft 408 kts 329°
2026-05-01 14:39 13.51979 123.31030 18696 ft 410 kts 329°
2026-05-01 14:39 13.54408 123.29436 19195 ft 412 kts 329°
2026-05-01 14:40 13.56726 123.27705 19646 ft 417 kts 319°
2026-05-01 14:40 13.58714 123.25487 20120 ft 421 kts 307°
2026-05-01 14:40 13.60232 123.22918 20597 ft 424 kts 298°
2026-05-01 14:40 13.61530 123.20223 21069 ft 426 kts 296°
2026-05-01 14:41 13.62813 123.17474 21522 ft 428 kts 296°
2026-05-01 14:41 13.64095 123.14729 21820 ft 421 kts 296°
2026-05-01 14:41 13.65346 123.12066 21902 ft 401 kts 296°
2026-05-01 14:41 13.66542 123.09537 21908 ft 386 kts 296°
2026-05-01 14:42 13.67684 123.07131 21910 ft 370 kts 297°
2026-05-01 14:42 13.68811 123.04758 21918 ft 363 kts 297°
2026-05-01 14:42 13.69919 123.02435 21920 ft 363 kts 297°
2026-05-01 14:42 13.71022 123.00122 21920 ft 363 kts 297°
2026-05-01 14:43 13.72142 122.97772 21924 ft 363 kts 297°
2026-05-01 14:43 13.73245 122.95458 21924 ft 363 kts 297°
2026-05-01 14:43 13.74345 122.93148 21925 ft 363 kts 297°
2026-05-01 14:43 13.75460 122.90807 21925 ft 364 kts 297°
2026-05-01 14:44 13.76585 122.88443 21927 ft 363 kts 296°
2026-05-01 14:44 13.78799 122.83785 21929 ft 364 kts 297°
2026-05-01 14:44 13.79908 122.81451 21931 ft 363 kts 297°
2026-05-01 14:45 13.81016 122.79120 21932 ft 363 kts 297°
2026-05-01 14:45 13.83240 122.74446 21941 ft 363 kts 297°
2026-05-01 14:45 13.84339 122.72137 21945 ft 363 kts 297°
2026-05-01 14:46 13.85450 122.69800 21947 ft 362 kts 297°
2026-05-01 14:46 13.87653 122.65160 21949 ft 363 kts 297°
2026-05-01 14:46 13.88768 122.62812 21946 ft 363 kts 296°
2026-05-01 14:47 13.89867 122.60496 21944 ft 363 kts 296°
2026-05-01 14:47 13.90981 122.58147 21941 ft 363 kts 296°
2026-05-01 14:47 13.92093 122.55801 21941 ft 363 kts 296°
2026-05-01 14:48 13.94290 122.51165 21949 ft 362 kts 296°
2026-05-01 14:48 13.95398 122.48824 21945 ft 362 kts 296°
2026-05-01 14:48 13.97593 122.44184 21944 ft 362 kts 296°
2026-05-01 14:49 13.99854 122.39407 21950 ft 385 kts 297°
2026-05-01 14:49 14.02301 122.34239 21944 ft 420 kts 296°
2026-05-01 14:50 14.04025 122.30572 21936 ft 428 kts 296°
2026-05-01 14:50 14.07496 122.23197 21932 ft 429 kts 296°
2026-05-01 14:51 14.08795 122.20442 21932 ft 429 kts 296°
2026-05-01 14:51 14.11404 122.14928 21929 ft 428 kts 296°
2026-05-01 14:52 14.14023 122.09418 21930 ft 429 kts 296°
2026-05-01 14:52 14.15227 122.06620 21838 ft 430 kts 291°
2026-05-01 14:52 14.17184 122.00854 21371 ft 426 kts 289°
2026-05-01 14:53 14.18147 121.97942 21136 ft 425 kts 289°
2026-05-01 14:53 14.19101 121.95091 20905 ft 423 kts 289°
2026-05-01 14:53 14.20066 121.92239 20672 ft 423 kts 289°
2026-05-01 14:53 14.21039 121.89384 20439 ft 421 kts 290°
2026-05-01 14:54 14.22013 121.86535 20206 ft 421 kts 290°
2026-05-01 14:54 14.22991 121.83681 19970 ft 420 kts 290°
2026-05-01 14:54 14.23958 121.80859 19715 ft 419 kts 290°
2026-05-01 14:54 14.24926 121.78033 19414 ft 417 kts 290°
2026-05-01 14:55 14.25890 121.75220 19008 ft 415 kts 290°
2026-05-01 14:55 14.26836 121.72456 18553 ft 411 kts 290°
2026-05-01 14:55 14.27788 121.69678 18070 ft 409 kts 290°
2026-05-01 14:55 14.28733 121.66921 17575 ft 407 kts 290°
2026-05-01 14:56 14.29658 121.64217 17084 ft 405 kts 290°
2026-05-01 14:56 14.30591 121.61494 16590 ft 403 kts 290°
2026-05-01 14:56 14.31519 121.58782 16095 ft 401 kts 290°
2026-05-01 14:56 14.32448 121.56066 15596 ft 399 kts 290°
2026-05-01 14:57 14.33368 121.53375 15108 ft 397 kts 290°
2026-05-01 14:57 14.35193 121.48036 14131 ft 392 kts 291°
2026-05-01 14:57 14.36086 121.45422 13660 ft 390 kts 291°
2026-05-01 14:58 14.36990 121.42773 13171 ft 387 kts 291°
2026-05-01 14:58 14.37879 121.40173 12689 ft 385 kts 291°
2026-05-01 14:58 14.38762 121.37587 12212 ft 383 kts 291°
2026-05-01 14:58 14.39634 121.35027 11739 ft 380 kts 291°
2026-05-01 14:59 14.40506 121.32458 11268 ft 377 kts 290°
2026-05-01 14:59 14.41355 121.29910 11018 ft 372 kts 288°
2026-05-01 14:59 14.41698 121.27284 10973 ft 369 kts 267°
2026-05-01 14:59 14.41148 121.24783 10971 ft 351 kts 246°
2026-05-01 15:00 14.38875 121.20628 10963 ft 318 kts 237°
2026-05-01 15:00 14.37714 121.18690 10645 ft 315 kts 237°
2026-05-01 15:00 14.36574 121.16796 10276 ft 314 kts 237°
2026-05-01 15:01 14.35424 121.14882 9899 ft 313 kts 237°
2026-05-01 15:01 14.34278 121.12973 9532 ft 310 kts 237°
2026-05-01 15:01 14.33150 121.11095 9191 ft 308 kts 237°
2026-05-01 15:01 14.32019 121.09216 9013 ft 306 kts 237°
2026-05-01 15:02 14.30905 121.07368 9004 ft 308 kts 237°
2026-05-01 15:02 14.30529 121.06744 9003 ft 308 kts 237°
2026-05-01 15:02 14.28636 121.03601 9020 ft 308 kts 237°
2026-05-01 15:02 14.27505 121.01723 8806 ft 304 kts 237°
2026-05-01 15:03 14.26403 120.99893 8410 ft 304 kts 237°
2026-05-01 15:03 14.25288 120.98041 8043 ft 302 kts 237°
2026-05-01 15:03 14.24288 120.96136 7686 ft 301 kts 252°
2026-05-01 15:03 14.24021 120.94021 7335 ft 297 kts 272°
2026-05-01 15:04 14.24164 120.91911 6982 ft 295 kts 276°
2026-05-01 15:04 14.24379 120.89827 6618 ft 294 kts 277°
2026-05-01 15:04 14.24719 120.87754 6233 ft 291 kts 291°
2026-05-01 15:04 14.25773 120.86037 6018 ft 282 kts 319°
2026-05-01 15:05 14.27322 120.84782 6004 ft 282 kts 332°
2026-05-01 15:05 14.29041 120.83830 6004 ft 282 kts 336°
2026-05-01 15:05 14.30818 120.82946 5991 ft 282 kts 337°
2026-05-01 15:05 14.32598 120.82080 5994 ft 282 kts 338°
2026-05-01 15:06 14.34372 120.81220 6014 ft 281 kts 337°
2026-05-01 15:06 14.36128 120.80374 5995 ft 273 kts 338°
2026-05-01 15:06 14.37792 120.79565 5880 ft 256 kts 338°
2026-05-01 15:06 14.39389 120.78778 5669 ft 248 kts 338°
2026-05-01 15:07 14.40944 120.78007 5379 ft 246 kts 338°
2026-05-01 15:07 14.42475 120.77244 5074 ft 246 kts 338°
2026-05-01 15:07 14.44020 120.76470 4769 ft 245 kts 338°
2026-05-01 15:07 14.45566 120.75697 4466 ft 245 kts 338°
2026-05-01 15:08 14.47090 120.74933 4168 ft 244 kts 337°
2026-05-01 15:08 14.48614 120.74171 3986 ft 241 kts 339°
2026-05-01 15:08 14.50198 120.73643 3981 ft 238 kts 353°
2026-05-01 15:08 14.51858 120.73388 3977 ft 238 kts 356°
2026-05-01 15:09 14.53488 120.73194 3967 ft 231 kts 357°
2026-05-01 15:09 14.55073 120.73012 3968 ft 229 kts 357°
2026-05-01 15:09 14.56666 120.72829 3781 ft 227 kts 358°
2026-05-01 15:09 14.58233 120.72649 3458 ft 228 kts 358°
2026-05-01 15:10 14.59827 120.72465 3162 ft 229 kts 357°
2026-05-01 15:10 14.62990 120.72092 2975 ft 228 kts 357°
2026-05-01 15:10 14.64560 120.71980 2960 ft 224 kts 11°
2026-05-01 15:11 14.65912 120.72639 2813 ft 210 kts 53°
2026-05-01 15:11 14.67214 120.75295 2670 ft 209 kts 77°
2026-05-01 15:11 14.67538 120.76770 2668 ft 210 kts 79°
2026-05-01 15:12 14.67813 120.78240 2664 ft 210 kts 81°
2026-05-01 15:12 14.68043 120.81226 2648 ft 209 kts 105°
2026-05-01 15:12 14.67374 120.82560 2645 ft 206 kts 127°
2026-05-01 15:13 14.64676 120.85724 2664 ft 194 kts 128°
2026-05-01 15:14 14.62945 120.87757 2704 ft 176 kts 128°
2026-05-01 15:14 14.62174 120.88664 2659 ft 158 kts 128°
2026-05-01 15:14 14.60819 120.90264 2489 ft 144 kts 127°
2026-05-01 15:15 14.59495 120.91838 2170 ft 144 kts 127°
2026-05-01 15:15 14.58196 120.93375 1786 ft 136 kts 127°
2026-05-01 15:16 14.56971 120.94827 1434 ft 134 kts 127°
2026-05-01 15:16 14.55797 120.96326 1098 ft 134 kts 123°
2026-05-01 15:17 14.54682 120.97865 738 ft 133 kts 127°
2026-05-01 15:18 14.52773 120.99979 221 ft 133 kts 133°
2026-05-01 15:18 14.52115 121.00658 89 ft 131 kts 135°
2026-05-01 15:19 14.51366 121.01436 82 ft 6 kts 133°
2026-05-01 15:19 14.51351 121.01455 82 ft 2 kts 121°
2026-05-01 15:19 14.51343 121.01484 82 ft 6 kts 90°
2026-05-01 15:20 14.51391 121.01557 82 ft 7 kts 46°
2026-05-01 15:20 14.51433 121.01588 82 ft 7 kts
2026-05-01 15:20 14.51484 121.01560 82 ft 9 kts 317°
2026-05-01 15:21 14.51535 121.01513 82 ft 10 kts 317°
2026-05-01 15:21 14.51587 121.01454 82 ft 11 kts 313°
2026-05-01 15:21 14.51646 121.01392 82 ft 12 kts 315°
2026-05-01 15:21 14.51710 121.01326 82 ft 13 kts 315°
2026-05-01 15:22 14.51852 121.01181 82 ft 13 kts 314°
2026-05-01 15:22 14.51884 121.01163 82 ft 3 kts 15°
2026-05-01 15:22 14.51901 121.01180 82 ft 3 kts 51°
2026-05-01 15:23 14.51918 121.01199 82 ft 3 kts 46°
2026-05-01 15:23 14.51935 121.01218 82 ft 3 kts 45°
2026-05-01 15:23 14.51944 121.01228 82 ft 0 kts 45°